Hourly Data Report for September 21, 2017

All times are specified in Local Standard Time (LST). Add 1 hour to adjust for Daylight Saving Time where and when it is observed.

ARCTIC BAY CS
NUNAVUT

72°59'34.000" N
85°00'44.000" W
10.00 m
2400404
71592
XAT

Download Data

Hourly Data (September 2017)
Hourly Data Report for September 21, 2017
Temp Definition
°C
Dew Point Temp Definition
°C
Rel Hum Definition
%
Wind Dir Definition
10's deg

Wind Spd Definition
km/h
Visibility Definition
km
Stn Press Definition
kPa
Hmdx Definition


Wind Chill Definition


Weather Definition


TIME
00:00 -6.0 -10.0 73 7 19   102.70   -13 LegendNANA
01:00 -5.8 -9.9 73 7 19   102.70   -12 LegendNANA
02:00 -6.1 -10.1 73 7 20   102.67   -13 LegendNANA
03:00 -5.8 -9.7 74 7 18   102.63   -12 LegendNANA
04:00 -6.2 -10.0 75 8 18   102.61   -13 LegendNANA
05:00 -6.3 -10.5 72 7 18   102.58   -13 LegendNANA
06:00 -6.3 -10.6 72 7 20   102.57   -13 LegendNANA
07:00 -6.3 -10.6 72 7 17   102.56   -13 LegendNANA
08:00 -6.0 -10.5 70 7 18   102.50   -12 LegendNANA
09:00 -5.1 -10.1 68 8 11   102.46   -10 LegendNANA
10:00 -4.2 -9.3 68 9 8   102.44   -8 LegendNANA
11:00 -3.2 -7.1 74 11 6   102.38   -6 LegendNANA
12:00
13:00
14:00 -2.2 -7.0 70 0 1   102.26   -3 LegendNANA
15:00 -1.4 -6.1 70 15 2   102.22   -2 LegendNANA
16:00 -2.1 -5.4 78 15 4   102.20   -4 LegendNANA
17:00 -2.8 -6.6 75 5 6   102.16   -5 LegendNANA
18:00 -1.9 -7.9 64 5 6   102.13   -4 LegendNANA
19:00 -3.5 -9.0 66 6 11   102.10   -8 LegendNANA
20:00 -3.3 -8.3 69 3 5   102.06   -5 LegendNANA
21:00 -3.0 -8.6 65 7 12   102.02   -7 LegendNANA
22:00 -3.1 -8.5 66 6 14   101.99   -8 LegendNANA
23:00 -3.5 -8.4 69 8 7   101.96   -6 LegendNANA

Notes on Data Quality.

Legend

  • E = Estimated
  • M = Missing
  • NA = Not Available
  • ‡ = Partner data that is not subject to review by the National Climate Archives
Date modified: